Regional Weather Roundup
Issued by NWS

Home | Current Version | Previous Version | Text Only | Print | Product List | Glossary On
Versions: 1 2 3 4 5 6 7 8 9 10 11 12 13 14 15 16 17 18 19 20 21 22 23 24 25 26 27 28 29 30 31 32 33 34 35 36 37 38 39 40 41 42 43 44 45 46 47 48 49 50
000
ASUS43 KFSD 110202
RWRSD

WEATHER ROUNDUP FOR SOUTH DAKOTA
NATIONAL WEATHER SERVICE SIOUX FALLS SD
800 PM CST WED FEB 10 2016

NOTE: "FAIR" INDICATES FEW OR NO CLOUDS BELOW 12,000 FEET WITH NO
SIGNIFICANT WEATHER AND/OR OBSTRUCTIONS TO VISIBILITY.


SDZ001>005-009-010-012>017-110300-
NORTHWEST AND NORTH CENTRAL SOUTH DAKOTA

CITY           SKY/WX    TMP DP  RH WIND       PRES   REMARKS
BUFFALO          N/A     31  27  85 VRB3      30.05R
FAITH            N/A     30  24  78 NE12      30.11R WCI  20
MOBRIDGE       CLOUDY    22  15  75 E8        30.14R WCI  12
$$

SDZ012>016-024>037-041>051-057-063-072>074-110300-
SOUTHWEST AND SOUTH CENTRAL SOUTH DAKOTA

CITY           SKY/WX    TMP DP  RH WIND       PRES   REMARKS
RAPID CTY ARPT CLEAR     36  28  73 N8        30.09R
PIERRE         CLOUDY    28  23  81 NE12      30.15R WCI  18
CUSTER         CLOUDY    43  20  39 NW8       30.08R
ELLSWORTH AFB  CLEAR     41  30  66 N8        30.09R
PHILIP         CLEAR     30  26  85 E8        30.12R WCI  22
PINE RIDGE     CLEAR     32  23  69 E5        30.07R WCI  27
WINNER         CLOUDY    32  26  78 N9        30.11R WCI  24
$$

SDZ004>011-016>023-039-040-110300-
NORTHEAST SOUTH DAKOTA

CITY           SKY/WX    TMP DP  RH WIND       PRES   REMARKS
ABERDEEN       CLOUDY    14   9  80 NE9       30.21S WCI   2
WATERTOWN      CLOUDY    10   4  76 NE8       30.17R WCI  -2
BROOKINGS      CLOUDY    10   5  80 E8        30.17R WCI  -2
SISSETON         N/A     11   6  81 NE3       30.22S
$$

SDZ017-020-022-023-036>040-048>070-110300-
SOUTHEAST SOUTH DAKOTA

CITY           SKY/WX    TMP DP  RH WIND       PRES   REMARKS
SIOUX FALLS    CLOUDY    14   8  77 NE13      30.16R WCI   0
HURON          CLOUDY    18  12  77 E8        30.17S WCI   8
CHAMBERLAIN    CLOUDY    27  23  85 NE7       30.14R WCI  19
MITCHELL       CLOUDY    20  15  81 E9        30.18R WCI   9
YANKTON        CLOUDY    19  14  79 NE12      30.15R WCI   7
$$

ABBREVIATIONS USED IN REMARKS
   TC - TEMPERATURE IN CELSIUS
  WCI - WIND CHILL INDEX
   HX - HEAT INDEX
  VSB - VISIBILITY




USA.gov is the U.S. government's official web portal to all federal, state and local government web resources and services.